Weather History for KLRD - February, 2013

Change the Weather History Date:

Friday, February 8, 2013

  Actual Average Record
Temperature  
Mean Temperature 66 °F 60 °F  
Max Temperature 73 °F 71 °F 94 °F (1918)
Min Temperature 59 °F 49 °F 21 °F (1933)
Degree Days  
Heating Degree Days 0 7  
Month to date heating degree days 0 59  
Since 1 July heating degree days 431 738  
Cooling Degree Days 1 2  
Month to date cooling degree days 37 12  
Year to date cooling degree days 115 40  
Growing Degree Days 16 (Base 50)    
Moisture  
Dew Point 47 °F    
Average Humidity 55    
Maximum Humidity 87    
Minimum Humidity 34    
Precipitation  
Precipitation 0.00 in 0.04 in 0.88 in (1972)
Month to date precipitation 0.29 0.26  
Year to date precipitation 0.73 1.16  
Sea Level Pressure  
Sea Level Pressure 30.10 in    
Wind  
Wind Speed 10 mph (ENE)    
Max Wind Speed 18 mph    
Max Gust Speed 22 mph    
Visibility 10 miles    
Events      
T = Trace of Precipitation, MM = Missing Value Source: NWS Daily Summary

Daily Weather History Graph

Daily Weather History Graph

Search for Another Location

Airport or City:

Trip Planner

Search our weather history database for the weather conditions in past years. The results will help you decide how hot, cold, wet, or windy it might be!

Date:

Astronomy

Feb. 08, 2013 Rise Set
Actual Time 7:19 AM CST 6:24 PM CST
Civil Twilight 6:55 AM CST 6:48 PM CST
Nautical Twilight 6:28 AM CST 7:16 PM CST
Astronomical Twilight 6:00 AM CST 7:43 PM CST
Moon 5:45 AM CST (2/8) 5:02 PM CST (2/8)
Length of Visible Light 11h 52m
Length of Day
11h 04m
Waning Crescent, 3% of the Moon is Illuminated
Feb 8
Waning Crescent
Feb 10
New
Feb 17
First Quarter
Feb 25
Full
Mar 4
Last Quarter

Hourly Weather History & Observations

Time (CST) Temp. Dew Point Humidity Pressure Visibility Wind Dir Wind Speed Gust Speed Precip Events Conditions
12:56 AM 61.0 °F 56.8 °F 86% 30.02 in 10.0 mi NNW 5.8 mph - N/A   Clear
1:56 AM 61.9 °F 56.8 °F 84% 30.04 in 10.0 mi NNW 6.9 mph - N/A   Clear
2:56 AM 63.9 °F 56.8 °F 78% 30.04 in 10.0 mi NNE 13.8 mph - N/A   Clear
3:56 AM 63.0 °F 52.9 °F 70% 30.07 in 10.0 mi NE 13.8 mph - N/A   Clear
4:56 AM 61.9 °F 50.0 °F 65% 30.09 in 10.0 mi NE 16.1 mph - N/A   Clear
5:56 AM 61.0 °F 48.9 °F 64% 30.12 in 10.0 mi NE 15.0 mph - N/A   Clear
6:56 AM 59.9 °F 45.9 °F 60% 30.15 in 10.0 mi NE 15.0 mph - N/A   Clear
7:56 AM 59.0 °F 46.9 °F 64% 30.17 in 10.0 mi NE 12.7 mph - N/A   Partly Cloudy
8:56 AM 59.0 °F 46.9 °F 64% 30.22 in 10.0 mi NE 10.4 mph - N/A   Mostly Cloudy
9:56 AM 59.9 °F 45.9 °F 60% 30.22 in 10.0 mi NE 11.5 mph - N/A   Mostly Cloudy
10:56 AM 63.0 °F 45.0 °F 52% 30.22 in 10.0 mi ENE 12.7 mph - N/A   Partly Cloudy
11:56 AM 64.9 °F 45.0 °F 48% 30.21 in 10.0 mi NE 11.5 mph - N/A   Mostly Cloudy
12:56 PM 64.9 °F 43.9 °F 46% 30.18 in 10.0 mi East 4.6 mph - N/A   Partly Cloudy
1:56 PM 68.9 °F 43.9 °F 40% 30.14 in 10.0 mi NE 8.1 mph - N/A   Clear
2:56 PM 70.9 °F 43.9 °F 38% 30.11 in 10.0 mi East 8.1 mph - N/A   Mostly Cloudy
3:56 PM 72.0 °F 43.0 °F 35% 30.07 in 10.0 mi ENE 11.5 mph - N/A   Clear
4:56 PM 72.9 °F 43.0 °F 34% 30.06 in 10.0 mi ENE 10.4 mph - N/A   Clear
5:56 PM 72.0 °F 41.9 °F 34% 30.05 in 10.0 mi ENE 8.1 mph - N/A   Clear
6:56 PM 68.9 °F 41.9 °F 37% 30.06 in 10.0 mi ESE 8.1 mph - N/A   Clear
7:56 PM 66.9 °F 43.0 °F 42% 30.06 in 10.0 mi ESE 9.2 mph - N/A   Scattered Clouds
8:56 PM 63.9 °F 43.9 °F 48% 30.06 in 10.0 mi ESE 9.2 mph - N/A   Clear
9:56 PM 61.9 °F 45.0 °F 54% 30.06 in 10.0 mi East 6.9 mph - N/A   Partly Cloudy
10:56 PM 61.0 °F 45.9 °F 58% 30.05 in 10.0 mi East 6.9 mph - N/A   Clear
11:56 PM 63.0 °F 46.9 °F 56% 30.04 in 10.0 mi ESE 9.2 mph - N/A   Overcast